This demonstration page uses our WeatherBlox Daily Observations layout. Learn more.

Left ArrowRight Arrow

44.89941, -97.11507

Hourly Observations for April 15, 2016

Temp ( °F °C ) Dew Point ( °F °C ) Humidity (%) Winds ( mph kmh ) Pressure ( in mb ) Visibility ( mi km ) Precip ( " mm )
12:53 am 00:53 Clear 58 14.4 34 1.1 41 41 SSE 18 30 29.77 1008 10 16 0.00 0.00
1:53 am 01:53 Clear 57 13.9 34 1.1 42 42 SSE 20 31 29.77 1008 10 16 0.00 0.00
2:53 am 02:53 Clear 55 12.8 35 1.7 47 47 SSE 18 30 29.77 1008 10 16 0.00 0.00
3:53 am 03:53 Clear 54 12.2 35 1.7 49 49 SSE 18 30 29.76 1008 10 16 0.00 0.00
4:53 am 04:53 Clear 53 11.7 36 2.2 52 52 SSE 17 28 29.76 1008 10 16 0.00 0.00
5:53 am 05:53 Clear 52 11.1 36 2.2 55 55 SSE 18 30 29.76 1008 10 16 0.00 0.00
6:53 am 06:53 Sunny 52 11.1 37 2.8 57 57 SSE 21 33 29.78 1008 10 16 0.00 0.00
7:53 am 07:53 Sunny 53 11.7 39 3.9 59 59 S 18 30 29.82 1010 10 16 0.00 0.00
8:53 am 08:53 Sunny 56 13.3 40 4.4 55 55 S 22 35 29.81 1009 10 16 0.00 0.00
9:53 am 09:53 Mostly Cloudy 56 13.3 42 5.6 60 60 S 20 31 29.82 1010 10 16 0.00 0.00
10:53 am 10:53 Cloudy 57 13.9 48 8.9 72 72 S 21 33 29.82 1010 10 16 0.02 0.51
11:15 am 11:15 Cloudy with Strong Thunderstorms 55 12.8 48 8.9 77 77 SSE 22 35 29.83 1010 4 6 0.03 0.76
11:30 am 11:30 Cloudy 57 13.9 48 8.9 72 72 SSE 26 43 29.83 1010 10 16 0.03 0.76
11:53 am 11:53 Cloudy 59 15 48 8.9 67 67 S 25 41 29.84 1010 10 16 0.03 0.76
12:53 pm 12:53 Cloudy 59 15 47 8.3 64 64 S 16 26 29.85 1011 10 16 0.00 0.00
1:53 pm 13:53 Mostly Sunny 66 18.9 46 7.8 49 49 S 30 48 29.83 1010 10 16 0.00 0.03
2:53 pm 14:53 Mostly Cloudy 67 19.4 46 7.8 47 47 S 22 35 29.84 1010 10 16 0.00 0.00
3:53 pm 15:53 Cloudy 68 20 46 7.8 45 45 S 21 33 29.85 1011 10 16 0.00 0.00
4:53 pm 16:53 Cloudy 68 20 45 7.2 44 44 S 17 28 29.85 1011 10 16 0.00 0.00
5:53 pm 17:53 Cloudy with Light Rain 65 18.3 49 9.4 56 56 SW 3 6 29.87 1011 10 16 0.00 0.03
6:09 pm 18:09 Cloudy with Nearby Thunderstorms 64 17.8 50 10 60 60 W 9 15 29.85 1011 9 14 0.00 0.03
6:29 pm 18:29 Cloudy 62 16.7 52 11.1 70 70 W 3 6 29.85 1011 10 16 0.00 0.03
6:53 pm 18:53 Cloudy 61 16.1 54 12.2 78 78 NNE 3 6 29.88 1012 10 16 0.00 0.03
7:53 pm 19:53 Cloudy 63 17.2 51 10.6 65 65 S 5 7 29.88 1012 10 16 0.00 0.00
8:53 pm 20:53 Mostly Cloudy 62 16.7 49 9.4 62 62 ESE 3 6 29.89 1012 10 16 0.00 0.03
9:53 pm 21:53 Mostly Cloudy 62 16.7 49 9.4 62 62 ESE 3 6 29.91 1013 10 16 0.00 0.00
10:53 pm 22:53 Cloudy 62 16.7 47 8.3 58 58 SE 7 11 29.89 1012 10 16 0.00 0.00
11:53 pm 23:53 Cloudy 62 16.7 46 7.8 56 56 SSE 16 26 29.90 1012 10 16 0.00 0.00

Powered by AerisWeather